Regional Weather Roundup
Issued by NWS Portland, ME

Current Version | Previous Version | Text Only | Print | Product List | Glossary Off
Versions: 1 2 3 4 5 6 7 8 9 10 11 12 13 14 15 16 17 18 19 20 21 22 23 24 25 26 27 28 29 30 31 32 33 34 35 36 37 38 39 40 41 42 43 44 45 46 47 48 49 50
000 ASUS41 KGYX 242210 RWRGYX WEATHER ROUNDUP FOR MAINE AND NEW HAMPSHIRE NATIONAL WEATHER SERVICE GRAY ME 600 PM EDT SUN SEP 24 2017 MEZ002-005-006-010-012-015-018-020-021-024-026-027-029-242300- MAINE CITY SKY/WX TMP DP RH WIND PRES REMARKS PORTLAND PTCLDY 77 64 64 S6 30.00R SANFORD CLEAR 81 70 69 S3 30.01R BAR HARBOR CLEAR 71 63 75 SW8 29.99R WISCASSET CLEAR 78 64 61 SW5 30.01S ROCKLAND CLEAR 74 65 73 W7 30.00R FRYEBURG CLEAR 83 70 64 CALM 30.01R LEWISTONAUBURN CLEAR 82 70 66 S5 30.00R AUGUSTA PTCLDY 82 67 60 VRB5 30.00R WATERVILLE PTCLDY 81 71 71 CALM 29.96S BANGOR MOCLDY 82 66 58 S7 29.98R GREENVILLE N/A 77 65 66 NW6 30.02R MILLINOCKET CLEAR 82 67 60 VRB3 29.98R HOULTON N/A 80 73 79 CALM 29.94R PRESQUE ISLE PTCLDY 79 69 71 N8 29.97R FRENCHVILLE CLOUDY 72 64 76 N9 29.99R CARIBOU CLEAR 79 67 66 N7 29.96R $$ NHZ002-005-008-009-011-012-014-242300- NEW HAMPSHIRE CITY SKY/WX TMP DP RH WIND PRES REMARKS PORTSMOUTH CLEAR 77 64 63 SE7 29.99S ROCHESTER CLEAR 81 68 64 S3 30.01R NASHUA CLEAR 81 71 71 CALM 30.01S MANCHESTER CLEAR 87 66 49 S7 29.99S CONCORD CLEAR 86 67 52 SE5 30.01R LACONIA CLEAR 85 69 58 SW3 30.02R PLYMOUTH FAIR 85 66 51 NW6 30.01S BERLIN PTCLDY 84 64 50 VRB5 30.05R WHITEFIELD CLEAR 84 67 56 SW5 30.05R JAFFREY CLEAR 84 69 60 CALM 30.06S KEENE CLEAR 87 71 58 CALM 30.03R HX 93 LEBANON CLEAR 83 73 72 CALM 30.02R MT WASHINGTON FOG 61 61 100 NW22 N/A VSB 3/16 $$ VTZ005-007-008-242300- VERMONT CITY SKY/WX TMP DP RH WIND PRES REMARKS ST JOHNSBURY N/A 83 69 62 MISG 30.02R MONTPELIER CLEAR 81 69 67 W5 30.10S BURLINGTON CLEAR 86 69 56 W5 30.03R HX 90 $$ MAZ007-012-024-CTZ003-RIZ002-NYZ038-NYZ072-242300- SOUTHERN NEW ENGLAND AND NY CITY SKY/WX TMP DP RH WIND PRES REMARKS BOSTON CLEAR 73 64 73 NE3 30.01F WORCESTER CLEAR 83 64 52 S3 30.05F NANTUCKET PTCLDY 68 67 96 NE6 30.03R PROVIDENCE CLEAR 80 67 64 S3 30.02S HARTFORD PTCLDY 89 65 44 CALM 30.01S HX 91 ALBANY CLEAR 88 65 46 CALM 30.03S HX 90 NEW YORK CITY PTCLDY 86 65 49 S9 30.01R $$ ANZ081-ANZ082-ANZ150-NHZ014-MEZ023>029-242300- COASTAL MARINE OBSERVATIONS STATION/POSITION TIME TEMP WIND PRES WAVE AIR SEA DIR/SP/G HT/PER (UTC) (F) (DEG/KT/KT) (MB) (FT/S) MOUNT DESERT ROC 2200 62 200/ 15/ 15 1016.2R MATINICUS ROCK 2100 61 210/ 13/ 14 1015.6R ISLE OF SHOALS 2100 69 160/ 16/ 16 1015.8F JEFFREYS LEDGE 2136 64 N/A 4/12 GEORGES BANK BUO 2050 75 74 1014.4 6/12 $$ .............KEY.............. WCI - WIND CHILL TC - TEMPERATURE IN CELSIUS VSB - VISIBILITY IN MILES HX - HEAT INDEX FAIR- INDICATES FEW OR NO CLOUDS BELOW 12,000 FT, WITH NO SIGNIFICANT WEATHER AND/OR OBSTRUCTIONS TO VISIBILITY.

USA.gov is the U.S. government's official web portal to all federal, state and local government web resources and services.